H-2A R/B

基本信息
目录编号:
29657
目录名称:
H-2A R/B
国际标识:
2006-059B
轨道中心:
EARTH
物体状态:
在轨
发射日期:
2006-12-18 UTC
国别:
日本 (JP)
轨道信息
数据来源: 国际轨道数据
星历时间: 2026-07-13T22:21:33+0800
半长轴: 11762.535km
偏心率: 0.4371507
轨道倾角: 28.598°
近地点辐角: 159.573°
升交点赤经: 282.325°
平近点角: 225.518°
近地点: 242.397km
远地点: 10526.399km
周期: 211.598分钟
每日圈数: 6.805365
详细信息
发射场:
TNSTA
轨道高度:
LEO
数据来源:
AOE Integration Group
参考系:
TEME
时间系统:
UTC
历元类型:
SGP4
2D轨道图
3D轨道图
轨道高度分析图
轨道倾角分析图
轨道综合分析图
查看轨道综合分析图